ALOUETTE 1 (S-27) 1 00424U 62049A 12136.88589119 .00000067 00000-0 67594-4 0 9081 2 00424 80.4630 304.0572 0022813 183.6842 176.4139 13.68820451477212 IUE 1 10637U 78012A 12133.31320006 -.00000060 00000-0 10000-3 0 7865 2 10637 43.8574 1.3219 1485533 173.8367 188.2023 1.00072104 78060 IRAS 1 13777U 83004A 12135.57028323 -.00000171 00000-0 -85917-4 0 8738 2 13777 99.0265 332.0672 0021695 151.3659 208.8701 14.00175078166264 AKEBONO (EXOS-D) 1 19822U 89016A 12137.06750005 .00027425 99466-7 74774-3 0 1954 2 19822 75.0672 63.3555 2512902 167.0043 201.0327 10.39577626703359 INTERCOSMOS 24 1 20261U 89080A 12136.59958042 .00000752 00000-0 21715-3 0 7600 2 20261 82.5844 132.6541 1214166 57.1192 314.0909 12.53976754 32822 COBE 1 20322U 89089A 12137.07854047 .00000198 00000-0 15166-3 0 7596 2 20322 99.0018 144.9105 0009256 44.6714 315.5169 14.04494319152502 HST 1 20580U 90037B 12137.17414033 .00001860 00000-0 12441-3 0 15 2 20580 28.4717 353.0341 0003418 75.9708 284.1312 15.02467850 9915 CRRES 1 20712U 90065A 12134.83508843 -.00000055 00000-0 37779-3 0 4466 2 20712 18.1652 348.7078 7116741 168.8244 224.8445 2.43496471182914 SARA 1 21578U 91050E 12136.89781876 .00000673 00000-0 18036-3 0 4357 2 21578 98.3702 108.1635 0002966 135.9503 224.1936 14.51294184 98640 SAMPEX 1 22012U 92038A 12135.90938825 .00038031 00000-0 35809-3 0 8807 2 22012 81.6294 159.8264 0025656 104.2991 256.1123 15.66470713 98540 ORBVIEW 1 (MICROLAB) 1 23547U 95017C 12137.23883442 .00000491 00000-0 12495-3 0 8752 2 23547 69.9806 215.0549 0011933 191.3805 168.7064 14.56437963907478 RXTE (XTE) 1 23757U 95074A 12136.95494000 .00005528 00000-0 14714-3 0 6406 2 23757 22.9913 350.4629 0007295 40.6179 319.4853 15.34157009908837 POLAR 1 23802U 96013A 12136.53983269 .00000084 00000-0 10000-3 0 2519 2 23802 82.2705 309.7454 6498595 38.2020 353.4771 1.29845603 78041 FAST 1 24285U 96049A 12137.14224827 .00002738 00000-0 24245-3 0 4752 2 24285 82.9723 241.7992 1968372 296.6471 44.6400 11.32512525638539 TRACE 1 25280U 98020A 12135.65472534 .00002807 00000-0 22148-3 0 2062 2 25280 97.5953 338.9926 0023550 261.8789 97.9764 15.01323849770274 SAFIR 2 1 25399U 98043F 12137.08360118 .00000100 00000-0 61364-4 0 2148 2 25399 98.3275 124.3533 0001246 346.1498 13.9660 14.24090011719760 SWAS 1 25560U 98071A 12135.80812605 .00001569 00000-0 17875-3 0 8941 2 25560 69.9007 239.4020 0006604 104.6429 255.5457 14.88269269728367 ASTRID 2 1 25568U 98072B 12136.87509167 .00000124 00000-0 11922-3 0 9881 2 25568 82.9458 276.1387 0024832 346.4886 13.5601 13.72133110672526 ORSTED 1 25635U 99008B 12136.52931427 .00000629 00000-0 16182-3 0 5111 2 25635 96.4697 91.1138 0143557 49.1206 312.2331 14.46339291697407 SUNSAT (SO-35) 1 25636U 99008C 12135.87353632 .00000246 00000-0 70764-4 0 2079 2 25636 96.4779 80.7444 0148865 96.5136 265.3029 14.43747962696415 ABRIXAS 1 25721U 99022A 12136.85523459 .00005896 00000-0 24062-3 0 4072 2 25721 48.4620 322.7849 0018338 22.8120 337.3612 15.25533917722452 TERRIERS 1 25735U 99026A 12137.18763273 .00003104 00000-0 11913-3 0 5902 2 25735 97.0946 337.6067 0005319 242.5135 117.5564 15.27160317721025 FUSE 1 1 25791U 99035A 12135.74205884 .00000343 00000-0 48792-4 0 2559 2 25791 24.9854 293.3351 0010594 278.6254 81.3059 14.42020826679914 CXO 1 25867U 99040B 12137.20352330 -.00000662 00000-0 00000+0 0 7400 2 25867 72.2386 7.0705 8755423 278.1518 359.5740 0.37822214 9037 CLEMENTINE 1 25978U 99064B 12136.52054054 .00001744 00000-0 19868-3 0 6052 2 25978 98.1176 247.2842 0009099 263.5689 96.4490 14.87497057673831 XMM-NEWTON 1 25989U 99066A 12135.97440380 .00000323 00000-0 00000-0 0 1956 2 25989 63.0896 79.3341 6777937 97.3825 0.1206 0.50151435 11560 TERRA 1 25994U 99068A 12137.21329882 .00000341 00000-0 85783-4 0 51 2 25994 98.2075 211.7671 0001297 88.7100 271.4270 14.57119689660107 ACRIMSAT 1 26033U 99070B 12135.70431246 .00000186 00000-0 46654-4 0 5471 2 26033 97.8371 345.4260 0029764 93.6368 266.8234 14.60903745660651 IMAGE 1 26113U 00017A 12133.57300776 -.00000288 00000-0 10000-3 0 2295 2 26113 93.2425 225.0286 7665132 162.1140 258.9729 1.68637631 74701 CLUSTER II-FM6 (SALSA) 1 26410U 00041A 12135.37368323 .00002741 00000-0 00000-0 0 13 2 26410 140.2260 285.6916 8397750 102.4632 0.5135 0.44210719 9263 CLUSTER II-FM7 (SAMBA) 1 26411U 00041B 12135.37336338 .00002742 00000-0 00000-0 0 8058 2 26411 140.2342 285.7051 8400024 102.4989 0.4536 0.44210356 9351 CLUSTER II-FM5 (RUMBA) 1 26463U 00045A 12135.37426554 .00002863 00000-0 00000-0 0 7940 2 26463 142.7720 281.4503 8316071 98.9866 0.5052 0.44209906 9859 CLUSTER II-FM8 (TANGO) 1 26464U 00045B 12135.38476984 .00003351 00000-0 00000+0 0 7788 2 26464 141.4167 280.1505 8766768 98.4810 0.5630 0.44212301 9243 MEGSAT-1 1 26546U 00057B 12136.89969510 .00000929 00000-0 12294-3 0 5846 2 26546 64.5556 12.2294 0042153 298.1465 61.5386 14.85571331630091 HETE-2 1 26561U 00061A 12137.21188636 .00003087 00000-0 18393-3 0 7573 2 26561 1.9512 265.4128 0022853 264.9852 94.7868 14.98296341634792 MUNIN 1 26621U 00075C 12137.19654409 -.00000515 00000-0 -45761-3 0 3781 2 26621 95.4110 3.4659 0715925 178.7917 181.5152 13.03840501546356 ODIN 1 26702U 01007A 12136.49932817 .00001640 00000-0 14428-3 0 6272 2 26702 97.6508 152.2310 0003989 136.2632 223.8917 14.97870580612460 TIMED 1 26998U 01055B 12136.89305371 .00000771 00000-0 94783-4 0 1839 2 26998 74.0740 45.4839 0002156 230.7080 129.3866 14.84941485565341 RHESSI 1 27370U 02004A 12137.08752483 .00004061 00000-0 27916-3 0 8455 2 27370 38.0402 26.5439 0016006 306.9729 52.9569 15.06101115563894 INTEGRAL 1 27540U 02048A 12136.91666667 -.00000157 00000-0 00000-0 0 1572 2 27540 68.1502 289.6692 8891889 250.4570 358.9047 0.33418874 7852 FEDSAT 1 27598U 02056B 12137.20025413 .00000163 00000-0 81811-4 0 6748 2 27598 98.2572 152.8151 0008952 339.4642 20.6178 14.28153764491104 WEOS 1 27599U 02056C 12135.63452428 -.00000005 00000-0 14180-4 0 6734 2 27599 98.2595 159.7299 0009901 353.7768 6.3261 14.28754901491061 MICRO LABSAT 1 27600U 02056D 12137.12368598 .00000111 00000-0 59892-4 0 6430 2 27600 98.2559 160.4141 0011124 349.9575 10.1382 14.29025912491388 CORIOLIS 1 27640U 03001A 12136.56055083 .00000258 00000-0 14576-3 0 8752 2 27640 98.7549 143.6623 0013330 243.3905 116.5915 14.18508356484403 CHIPSAT 1 27643U 03002B 12135.95323559 .00002603 00000-0 21459-3 0 503 2 27643 94.0061 136.4781 0008852 263.7094 96.3129 14.99260173510040 SORCE 1 27651U 03004A 12135.63919616 .00001163 00000-0 15374-3 0 7948 2 27651 39.9962 209.2046 0024998 179.3698 180.7068 14.83535279504016 GALEX 1 27783U 03017A 12136.75132598 .00000613 00000-0 10329-3 0 4972 2 27783 28.9992 264.6690 0003887 110.1438 249.9579 14.60328989483342 MOST 1 27843U 03031D 12135.59474829 .00000055 00000-0 46164-4 0 3822 2 27843 98.7152 143.1787 0009824 337.6831 22.3916 14.20235078459972 QUAKESAT 1 27845U 03031F 12137.08449812 .00000312 00000-0 16501-3 0 4080 2 27845 98.7111 145.7393 0008682 343.5346 16.5547 14.20736800460200 AAU CUBESAT 1 27846U 03031G 12135.99026865 .00000165 00000-0 95567-4 0 2790 2 27846 98.6940 145.3100 0008942 303.4540 56.5792 14.21278896460294 SCISAT 1 1 27858U 03036A 12136.41449561 .00000547 00000-0 85827-4 0 6255 2 27858 73.9339 251.2538 0007422 62.7229 297.4719 14.75334848471474 KAISTSAT 4 1 27945U 03042G 12136.75635374 .00000284 00000-0 63377-4 0 5630 2 27945 97.8141 339.9268 0012685 22.7222 337.4538 14.63484257461118 GP-B 1 28230U 04014A 12136.57648100 .00000502 00000-0 69849-4 0 4204 2 28230 89.9117 149.1095 0002499 60.2730 299.8735 14.76562683434645 DEMETER 1 28368U 04025C 12137.22485798 .00000620 00000-0 10762-3 0 8881 2 28368 97.8649 190.1245 0002372 103.3560 256.7915 14.71469016422109 DOUBLESTAR (TC-2) 1 28382U 04029A 12135.87234750 .00000102 00000-0 17589-2 0 778 2 28382 88.8373 324.6988 7222557 94.0405 343.5103 2.15603972 60295 SWIFT 1 28485U 04047A 12136.21525887 .00002333 00000-0 17216-3 0 1615 2 28485 20.5581 90.8407 0013360 301.1218 58.7899 14.94735884408761 SUZAKU (ASTRO-EII) 1 28773U 05025A 12136.90888744 .00003102 00000-0 21657-3 0 7617 2 28773 31.4046 3.0719 0005706 221.2365 138.7849 15.03554115376226 AKARI (ASTRO-F) 1 28939U 06005A 12135.69156823 .00006420 00000-0 36921-3 0 8944 2 28939 98.2650 158.0185 0176267 24.5928 336.3579 15.00599406331642 FORMOSAT-3 FM6 1 29047U 06011A 12136.77872972 .00000069 00000-0 44085-4 0 8025 2 29047 71.9809 16.0704 0051079 115.2565 245.3871 14.27447813319478 FORMOSAT-3 FM1 1 29048U 06011B 12135.88109374 .00000392 00000-0 17471-3 0 8865 2 29048 71.9690 292.1049 0044055 67.8901 292.6895 14.27459137321823 FORMOSAT-3 FM5 1 29049U 06011C 12136.52016077 .00000364 00000-0 16364-3 0 8279 2 29049 72.0187 85.8131 0034660 121.9515 238.5003 14.27469684317698 FORMOSAT-3 FM3 1 29050U 06011D 12136.79376648 .00001129 00000-0 26646-3 0 1472 2 29050 72.0170 165.5390 0054941 284.0071 75.4962 14.55252212325887 FORMOSAT-3 FM4 1 29051U 06011E 12136.97481715 .00000375 00000-0 16522-3 0 8814 2 29051 72.0079 352.1010 0069185 349.7110 10.2600 14.27477462320345 FORMOSAT-3 FM2 1 29052U 06011F 12137.14826378 .00000363 00000-0 16273-3 0 9027 2 29052 72.0343 57.1821 0040001 86.9082 273.6630 14.27517009318679 CLOUDSAT 1 29107U 06016A 12137.09726341 -.00029900 00000-0 -66628-2 0 9169 2 29107 98.1788 81.0022 0002314 97.4725 259.8280 14.57071375321852 CALIPSO 1 29108U 06016B 12136.47871784 .00000686 00000-0 16223-3 0 9405 2 29108 98.1903 79.7898 0001256 81.5655 278.5686 14.57119516321697 HINODE (SOLAR-B) 1 29479U 06041A 12136.53754194 .00000505 00000-0 10795-3 0 7806 2 29479 98.0998 136.4787 0016975 304.1571 55.8012 14.62843028301464 SJ-6C 1 29505U 06046A 12137.15449845 .00000916 00000-0 97103-4 0 2107 2 29505 97.7204 133.2656 0004083 122.1989 237.9648 14.91476530302616 SJ-6D 1 29506U 06046B 12137.23323454 .00000543 00000-0 60943-4 0 1886 2 29506 97.7290 131.9905 0001959 154.6571 205.4730 14.90705961302489 COROT 1 29678U 06063A 12137.17823247 .00000025 00000-0 10322-4 0 7824 2 29678 90.0099 10.2643 0007063 62.6303 297.5594 13.98269451274780 AIM 1 31304U 07015A 12136.77017612 .00002979 00000-0 27371-3 0 6962 2 31304 97.8297 245.3931 0009854 292.2535 67.7660 14.95560628275503 FGRST (GLAST) 1 33053U 08029A 12136.96664423 .00000281 00000-0 00000+0 0 559 2 33053 25.5841 9.9134 0013835 98.2079 262.0433 15.06168480216358 KORONAS-FOTON 1 33504U 09003A 12136.90364378 .00001863 00000-0 12130-3 0 6265 2 33504 82.4750 267.5589 0017152 58.3905 88.5306 15.07259727180780 TATIANA 2 1 35868U 09049D 12137.19986953 .00000084 00000-0 57335-4 0 4530 2 35868 98.6556 192.5359 0004923 123.8229 236.3426 14.22259885138082 UGATUSAT 1 35869U 09049E 12137.22708208 .00000037 00000-0 36395-4 0 4216 2 35869 98.6524 192.1486 0005071 136.1711 223.9858 14.22069173138072 SUMBANDILA (SO-67) 1 35870U 09049F 12137.13184230 .00004487 00000-0 19055-3 0 9571 2 35870 97.2349 174.0072 0000762 343.5128 103.5786 15.23559357147738 WISE 1 36119U 09071A 12136.92666991 .00002768 00000-0 15031-3 0 7004 2 36119 97.5164 141.8229 0003429 5.0901 355.0367 15.15351870133602 SDO 1 36395U 10005A 12136.31855759 -.00000035 00000-0 10000-3 0 4963 2 36395 27.8278 174.6282 0002386 294.6542 136.8997 1.00274036 8467 CRYOSAT 2 1 36508U 10013A 12136.66514738 .00000003 00000-0 00000+0 0 6461 2 36508 92.0206 112.8114 0009465 170.7796 189.3580 14.52181105111467 PICARD 1 36598U 10028A 12137.11336040 .00000138 00000-0 47273-4 0 871 2 36598 98.2903 322.3677 0000912 289.8151 70.2935 14.49618862101478 SPEKTR-R 1 37755U 11037A 12132.82246167 -.00001216 00000-0 00000+0 0 322 2 37755 79.6876 299.7057 6718160 326.1143 356.8183 0.11091123 350